Flag for U.S.A. Weather past 2 weeks in Worcester, Massachusetts, U.S.A.

Now
31 °F

Clear.


Feels Like: 22 °F
Forecast: 34 / 55 °F
Wind: 10 mph from Northwest

Location: Worcester Regional Airport

Current Time: Apr 25, 2015 at 5:56:28 AM

Latest Report: Apr 25, 2015 at 4:54 AM


Visibility: 10 mi

Pressure: 29.76 "Hg

Humidity: 64%

Dew point: 20 °F

Location of WorcesterLocation

Historic Weather in Worcester — Graph

°F

Worcester temperature yesterday

Maximum temperature yesterday: 43 °F (at 3:54 PM)
Minimum temperature yesterday: 33 °F (at 1:54 AM)
Average temperature yesterday: 37 °F

Past Weeks' High & Low Weather Summary

 TemperatureHumidityPressure
High70 °F (Apr 18, 4:54 PM)100% (Apr 10, 3:54 AM)30.48 "Hg (Apr 10, 3:54 AM)
Low31 °F (Apr 25, 3:54 AM)16% (Apr 15, 12:54 PM)29.52 "Hg (Apr 22, 10:54 PM)
Average49 °F56%29.98 "Hg
* Reported Apr 10 3:54 AM — Apr 25 3:54 AM, Worcester, Weather by CustomWeather, © 2015

Note: Actual official high and low records may vary slightly from our data, if they occured in-between our weather recording intervals... More about our weather records

Advertising

Worcester weather history for previous 24 hours

 ConditionsComfort  
Time TempWeatherWind HumidityBarometerVisibility
3:54 AM
Sat, Apr 25
31 °FClear.9 mph64%29.76 "Hg10 mi
2:54 AM32 °FClear.9 mph61%29.77 "Hg10 mi
1:54 AM33 °FClear.14 mph58%29.77 "Hg10 mi
12:54 AM33 °FClear.9 mph56%29.79 "Hg10 mi
11:54 PM
Fri, Apr 24
35 °FPassing clouds.13 mph52%29.81 "Hg10 mi
10:54 PM36 °FOvercast.13 mph52%29.81 "Hg10 mi
9:54 PM36 °FOvercast.12 mph54%29.83 "Hg10 mi
8:54 PM37 °FOvercast.12 mph52%29.82 "Hg10 mi
7:54 PM37 °FOvercast.15 mph48%29.77 "Hg10 mi
6:54 PM39 °FOvercast.12 mph48%29.78 "Hg10 mi
5:54 PM40 °FOvercast.20 mph45%29.76 "Hg10 mi
4:54 PM42 °FOvercast.15 mph41%29.74 "Hg10 mi
3:54 PM43 °FPartly sunny.14 mph38%29.73 "Hg10 mi
2:54 PM42 °FOvercast.20 mph43%29.73 "Hg10 mi
1:54 PM41 °FOvercast.18 mph45%29.74 "Hg10 mi
12:54 PM41 °FOvercast.24 mph45%29.74 "Hg10 mi
11:54 AM40 °FOvercast.18 mph45%29.74 "Hg10 mi
10:54 AM41 °FOvercast.17 mph45%29.75 "Hg10 mi
9:54 AM38 °FOvercast.21 mph51%29.75 "Hg10 mi
8:54 AM35 °FMore clouds than sun.21 mph56%29.76 "Hg10 mi
7:54 AM34 °FMostly cloudy.17 mph59%29.75 "Hg10 mi
6:54 AM33 °FOvercast.15 mph61%29.74 "Hg10 mi
5:54 AM33 °FMostly cloudy.18 mph63%29.72 "Hg10 mi
Weather by CustomWeather, © 2015

See weather overviewHow to use our weather pages